#Datum;Uhrzeit;WR;Pac;DaySum;Status;WR;Pac;DaySum;Status;Pdc1;Udc;Temp;WR;Pac;DaySum;Status;Pdc1;Udc;Temp;WR;Pac;DaySum;Status;Pdc1;Udc;Temp;WR;Pac;DaySum;Status;Pdc1;Pdc2;Udc1;Udc2;Temp;WR;Pac;DaySum;Status;Pdc1;Pdc2;Udc1;Udc2;Temp;WR;Pac;DaySum;Status;Pdc1;Udc;Temp;WR;Pac;DaySum;Status;Pdc1;Udc;Temp;WR;Pac;DaySum;Status;Pdc1;Udc;Temp
24.10.19;23:55:00;1;269;10439;0;2;0;17449;0;0;0;0;3;0;11057;0;0;0;0;4;0;14842;0;0;0;0;5;0;35304;0;0;0;0;0;0;6;0;27047;0;0;0;0;0;0;7;0;24105;0;0;0;0;8;0;23861;0;0;0;0;9;0;13012;0;0;0;0
24.10.19;23:50:00;1;258;10416;0;2;0;17449;0;0;0;0;3;0;11057;0;0;0;0;4;0;14842;0;0;0;0;5;0;35304;0;0;0;0;0;0;6;0;27047;0;0;0;0;0;0;7;0;24105;0;0;0;0;8;0;23861;0;0;0;0;9;0;13012;0;0;0;0
24.10.19;23:45:00;1;220;10395;0;2;0;17449;0;0;0;0;3;0;11057;0;0;0;0;4;0;14842;0;0;0;0;5;0;35304;0;0;0;0;0;0;6;0;27047;0;0;0;0;0;0;7;0;24105;0;0;0;0;8;0;23861;0;0;0;0;9;0;13012;0;0;0;0
24.10.19;23:40:00;1;214;10376;0;2;0;17449;0;0;0;0;3;0;11057;0;0;0;0;4;0;14842;0;0;0;0;5;0;35304;0;0;0;0;0;0;6;0;27047;0;0;0;0;0;0;7;0;24105;0;0;0;0;8;0;23861;0;0;0;0;9;0;13012;0;0;0;0
24.10.19;23:35:00;1;216;10358;0;2;0;17449;0;0;0;0;3;0;11057;0;0;0;0;4;0;14842;0;0;0;0;5;0;35304;0;0;0;0;0;0;6;0;27047;0;0;0;0;0;0;7;0;24105;0;0;0;0;8;0;23861;0;0;0;0;9;0;13012;0;0;0;0
24.10.19;23:30:00;1;273;10340;0;2;0;17449;0;0;0;0;3;0;11057;0;0;0;0;4;0;14842;0;0;0;0;5;0;35304;0;0;0;0;0;0;6;0;27047;0;0;0;0;0;0;7;0;24105;0;0;0;0;8;0;23861;0;0;0;0;9;0;13012;0;0;0;0
24.10.19;23:25:00;1;218;10318;0;2;0;17449;0;0;0;0;3;0;11057;0;0;0;0;4;0;14842;0;0;0;0;5;0;35304;0;0;0;0;0;0;6;0;27047;0;0;0;0;0;0;7;0;24105;0;0;0;0;8;0;23861;0;0;0;0;9;0;13012;0;0;0;0
24.10.19;23:20:00;1;216;10299;0;2;0;17449;0;0;0;0;3;0;11057;0;0;0;0;4;0;14842;0;0;0;0;5;0;35304;0;0;0;0;0;0;6;0;27047;0;0;0;0;0;0;7;0;24105;0;0;0;0;8;0;23861;0;0;0;0;9;0;13012;0;0;0;0
24.10.19;23:15:00;1;262;10281;0;2;0;17449;0;0;0;0;3;0;11057;0;0;0;0;4;0;14842;0;0;0;0;5;0;35304;0;0;0;0;0;0;6;0;27047;0;0;0;0;0;0;7;0;24105;0;0;0;0;8;0;23861;0;0;0;0;9;0;13012;0;0;0;0
24.10.19;23:10:00;1;324;10260;0;2;0;17449;0;0;0;0;3;0;11057;0;0;0;0;4;0;14842;0;0;0;0;5;0;35304;0;0;0;0;0;0;6;0;27047;0;0;0;0;0;0;7;0;24105;0;0;0;0;8;0;23861;0;0;0;0;9;0;13012;0;0;0;0
24.10.19;23:05:00;1;350;10233;0;2;0;17449;0;0;0;0;3;0;11057;0;0;0;0;4;0;14842;0;0;0;0;5;0;35304;0;0;0;0;0;0;6;0;27047;0;0;0;0;0;0;7;0;24105;0;0;0;0;8;0;23861;0;0;0;0;9;0;13012;0;0;0;0
24.10.19;23:00:00;1;382;10204;0;2;0;17449;0;0;0;0;3;0;11057;0;0;0;0;4;0;14842;0;0;0;0;5;0;35304;0;0;0;0;0;0;6;0;27047;0;0;0;0;0;0;7;0;24105;0;0;0;0;8;0;23861;0;0;0;0;9;0;13012;0;0;0;0
24.10.19;22:55:00;1;449;10172;0;2;0;17449;0;0;0;0;3;0;11057;0;0;0;0;4;0;14842;0;0;0;0;5;0;35304;2;0;0;0;0;0;6;0;27047;2;0;0;0;0;0;7;0;24105;0;0;0;0;8;0;23861;0;0;0;0;9;0;13012;0;0;0;0
24.10.19;22:50:00;1;446;10141;0;2;0;17449;0;0;0;0;3;0;11057;0;0;0;0;4;0;14842;0;0;0;0;5;0;35304;2;0;0;0;0;0;6;0;27047;2;0;0;0;0;0;7;0;24105;0;0;0;0;8;0;23861;0;0;0;0;9;0;13012;0;0;0;0
24.10.19;22:45:00;1;452;10101;0;2;0;17449;0;0;0;0;3;0;11057;0;0;0;0;4;0;14842;0;0;0;0;5;0;35304;2;0;0;0;0;0;6;0;27047;2;0;0;0;0;0;7;0;24105;0;0;0;0;8;0;23861;0;0;0;0;9;0;13012;0;0;0;0
24.10.19;22:40:00;1;432;10064;0;2;0;17449;0;0;0;0;3;0;11057;0;0;0;0;4;0;14842;0;0;0;0;5;0;35304;2;0;0;0;0;0;6;0;27047;2;0;0;0;0;0;7;0;24105;0;0;0;0;8;0;23861;0;0;0;0;9;0;13012;0;0;0;0
24.10.19;22:35:00;1;437;10028;0;2;0;17449;0;0;0;0;3;0;11057;0;0;0;0;4;0;14842;0;0;0;0;5;0;35304;2;0;0;0;0;0;6;0;27047;2;0;0;0;0;0;7;0;24105;0;0;0;0;8;0;23861;0;0;0;0;9;0;13012;0;0;0;0
24.10.19;22:30:00;1;455;9991;0;2;0;17449;0;0;0;0;3;0;11057;0;0;0;0;4;0;14842;0;0;0;0;5;0;35304;2;0;0;0;0;0;6;0;27047;2;0;0;0;0;0;7;0;24105;0;0;0;0;8;0;23861;0;0;0;0;9;0;13012;0;0;0;0
24.10.19;22:25:00;1;381;9954;0;2;0;17449;0;0;0;0;3;0;11057;0;0;0;0;4;0;14842;0;0;0;0;5;0;35304;2;0;0;0;0;0;6;0;27047;2;0;0;0;0;0;7;0;24105;0;0;0;0;8;0;23861;0;0;0;0;9;0;13012;0;0;0;0
24.10.19;22:20:00;1;392;9922;0;2;0;17449;0;0;0;0;3;0;11057;0;0;0;0;4;0;14842;0;0;0;0;5;0;35304;2;0;0;0;0;0;6;0;27047;2;0;0;0;0;0;7;0;24105;0;0;0;0;8;0;23861;0;0;0;0;9;0;13012;0;0;0;0
24.10.19;22:15:00;1;423;9889;0;2;0;17449;0;0;0;0;3;0;11057;0;0;0;0;4;0;14842;0;0;0;0;5;0;35304;2;0;0;0;0;0;6;0;27047;2;0;0;0;0;0;7;0;24105;0;0;0;0;8;0;23861;0;0;0;0;9;0;13012;0;0;0;0
24.10.19;22:10:00;1;463;9853;0;2;0;17449;0;0;0;0;3;0;11057;0;0;0;0;4;0;14842;0;0;0;0;5;0;35304;2;0;0;0;0;0;6;0;27047;2;0;0;0;0;0;7;0;24105;0;0;0;0;8;0;23861;0;0;0;0;9;0;13012;0;0;0;0
24.10.19;22:05:00;1;515;9813;0;2;0;17449;0;0;0;0;3;0;11057;0;0;0;0;4;0;14842;0;0;0;0;5;0;35304;2;0;0;0;0;0;6;0;27047;2;0;0;0;0;0;7;0;24105;0;0;0;0;8;0;23861;0;0;0;0;9;0;13012;0;0;0;0
24.10.19;22:00:00;1;440;9769;0;2;0;17449;0;0;0;0;3;0;11057;0;0;0;0;4;0;14842;0;0;0;0;5;0;35304;2;0;0;0;0;0;6;0;27047;2;0;0;0;0;0;7;0;24105;0;0;0;0;8;0;23861;0;0;0;0;9;0;13012;0;0;0;0
24.10.19;21:55:00;1;427;9733;0;2;0;17449;0;0;0;0;3;0;11057;0;0;0;0;4;0;14842;0;0;0;0;5;0;35304;2;0;0;0;0;0;6;0;27047;2;0;0;0;0;0;7;0;24105;0;0;0;0;8;0;23861;0;0;0;0;9;0;13012;0;0;0;0
24.10.19;21:50:00;1;460;9697;0;2;0;17449;0;0;0;0;3;0;11057;0;0;0;0;4;0;14842;0;0;0;0;5;0;35304;2;0;0;0;0;0;6;0;27047;2;0;0;0;0;0;7;0;24105;0;0;0;0;8;0;23861;0;0;0;0;9;0;13012;0;0;0;0
24.10.19;21:45:00;1;366;9663;0;2;0;17449;0;0;0;0;3;0;11057;0;0;0;0;4;0;14842;0;0;0;0;5;0;35304;2;0;0;0;0;0;6;0;27047;2;0;0;0;0;0;7;0;24105;0;0;0;0;8;0;23861;0;0;0;0;9;0;13012;0;0;0;0
24.10.19;21:40:00;1;406;9632;0;2;0;17449;0;0;0;0;3;0;11057;0;0;0;0;4;0;14842;0;0;0;0;5;0;35304;2;0;0;0;0;0;6;0;27047;2;0;0;0;0;0;7;0;24105;0;0;0;0;8;0;23861;0;0;0;0;9;0;13012;0;0;0;0
24.10.19;21:35:00;1;889;9597;0;2;0;17449;0;0;0;0;3;0;11057;0;0;0;0;4;0;14842;0;0;0;0;5;0;35304;2;0;0;0;0;0;6;0;27047;2;0;0;0;0;0;7;0;24105;0;0;0;0;8;0;23861;0;0;0;0;9;0;13012;0;0;0;0
24.10.19;21:30:00;1;2325;9499;0;2;0;17449;0;0;0;0;3;0;11057;0;0;0;0;4;0;14842;0;0;0;0;5;0;35304;2;0;0;0;0;0;6;0;27047;2;0;0;0;0;0;7;0;24105;0;0;0;0;8;0;23861;0;0;0;0;9;0;13012;0;0;0;0
24.10.19;21:25:00;1;2374;9305;0;2;0;17449;0;0;0;0;3;0;11057;0;0;0;0;4;0;14842;0;0;0;0;5;0;35304;2;0;0;0;0;0;6;0;27047;2;0;0;0;0;0;7;0;24105;0;0;0;0;8;0;23861;0;0;0;0;9;0;13012;0;0;0;0
24.10.19;21:20:00;1;1083;9105;0;2;0;17449;0;0;0;0;3;0;11057;0;0;0;0;4;0;14842;0;0;0;0;5;0;35304;2;0;0;0;0;0;6;0;27047;2;0;0;0;0;0;7;0;24105;0;0;0;0;8;0;23861;0;0;0;0;9;0;13012;0;0;0;0
24.10.19;21:15:00;1;1750;9017;0;2;0;17449;0;0;0;0;3;0;11057;0;0;0;0;4;0;14842;0;0;0;0;5;0;35304;2;0;0;0;0;0;6;0;27047;2;0;0;0;0;0;7;0;24105;0;0;0;0;8;0;23861;0;0;0;0;9;0;13012;0;0;0;0
24.10.19;21:10:00;1;628;8882;0;2;0;17449;0;0;0;0;3;0;11057;0;0;0;0;4;0;14842;0;0;0;0;5;0;35304;2;0;0;0;0;0;6;0;27047;2;0;0;0;0;0;7;0;24105;0;0;0;0;8;0;23861;0;0;0;0;9;0;13012;0;0;0;0
24.10.19;21:05:00;1;545;8829;0;2;0;17449;0;0;0;0;3;0;11057;0;0;0;0;4;0;14842;0;0;0;0;5;0;35304;2;0;0;0;0;0;6;0;27047;2;0;0;0;0;0;7;0;24105;0;0;0;0;8;0;23861;0;0;0;0;9;0;13012;0;0;0;0
24.10.19;21:00:00;1;2062;8784;0;2;0;17449;0;0;0;0;3;0;11057;0;0;0;0;4;0;14842;0;0;0;0;5;0;35304;2;0;0;0;0;0;6;0;27047;2;0;0;0;0;0;7;0;24105;0;0;0;0;8;0;23861;0;0;0;0;9;0;13012;0;0;0;0
24.10.19;20:55:00;1;1124;8614;0;2;0;17449;0;0;0;0;3;0;11057;0;0;0;0;4;0;14842;0;0;0;0;5;0;35304;2;0;0;0;0;0;6;0;27047;2;0;0;0;0;0;7;0;24105;0;0;0;0;8;0;23861;0;0;0;0;9;0;13012;0;0;0;0
24.10.19;20:50:00;1;959;8534;0;2;0;17449;0;0;0;0;3;0;11057;0;0;0;0;4;0;14842;0;0;0;0;5;0;35304;2;0;0;0;0;0;6;0;27047;2;0;0;0;0;0;7;0;24105;0;0;0;0;8;0;23861;0;0;0;0;9;0;13012;0;0;0;0
24.10.19;20:45:00;1;1134;8422;0;2;0;17449;0;0;0;0;3;0;11057;0;0;0;0;4;0;14842;0;0;0;0;5;0;35304;2;0;0;0;0;0;6;0;27047;2;0;0;0;0;0;7;0;24105;0;0;0;0;8;0;23861;0;0;0;0;9;0;13012;0;0;0;0
24.10.19;20:40:00;1;2163;8305;0;2;0;17449;0;0;0;0;3;0;11057;0;0;0;0;4;0;14842;0;0;0;0;5;0;35304;2;0;0;0;0;0;6;0;27047;2;0;0;0;0;0;7;0;24105;0;0;0;0;8;0;23861;0;0;0;0;9;0;13012;0;0;0;0
24.10.19;20:35:00;1;2672;8109;0;2;0;17449;0;0;0;0;3;0;11057;0;0;0;0;4;0;14842;0;0;0;0;5;0;35304;2;0;0;0;0;0;6;0;27047;2;0;0;0;0;0;7;0;24105;0;0;0;0;8;0;23861;0;0;0;0;9;0;13012;0;0;0;0
24.10.19;20:30:00;1;738;7910;0;2;0;17449;0;0;0;0;3;0;11057;0;0;0;0;4;0;14842;0;0;0;0;5;0;35304;2;0;0;0;0;0;6;0;27047;2;0;0;0;0;0;7;0;24105;0;0;0;0;8;0;23861;0;0;0;0;9;0;13012;0;0;0;0
24.10.19;20:25:00;1;695;7848;0;2;0;17449;0;0;0;0;3;0;11057;0;0;0;0;4;0;14842;0;0;0;0;5;0;35304;2;0;0;0;0;0;6;0;27047;2;0;0;0;0;0;7;0;24105;0;0;0;0;8;0;23861;0;0;0;0;9;0;13012;0;0;0;0
24.10.19;20:20:00;1;700;7790;0;2;0;17449;0;0;0;0;3;0;11057;0;0;0;0;4;0;14842;0;0;0;0;5;0;35304;2;0;0;0;0;0;6;0;27047;2;0;0;0;0;0;7;0;24105;0;0;0;0;8;0;23861;0;0;0;0;9;0;13012;0;0;0;0
24.10.19;20:15:00;1;783;7732;0;2;0;17449;0;0;0;0;3;0;11057;0;0;0;0;4;0;14842;0;0;0;0;5;0;35304;2;0;0;0;0;0;6;0;27047;2;0;0;0;0;0;7;0;24105;0;0;0;0;8;0;23861;0;0;0;0;9;0;13012;0;0;0;0
24.10.19;20:10:00;1;664;7668;0;2;0;17449;0;0;0;0;3;0;11057;0;0;0;0;4;0;14842;0;0;0;0;5;0;35304;2;0;0;0;0;0;6;0;27047;2;0;0;0;0;0;7;0;24105;0;0;0;0;8;0;23861;0;0;0;0;9;0;13012;0;0;0;0
24.10.19;20:05:00;1;707;7613;0;2;0;17449;0;0;0;0;3;0;11057;0;0;0;0;4;0;14842;0;0;0;0;5;0;35304;2;0;0;0;0;0;6;0;27047;2;0;0;0;0;0;7;0;24105;0;0;0;0;8;0;23861;0;0;0;0;9;0;13012;0;0;0;0
24.10.19;20:00:00;1;893;7554;0;2;0;17449;0;0;0;0;3;0;11057;0;0;0;0;4;0;14842;0;0;0;0;5;0;35304;2;0;0;0;0;0;6;0;27047;2;0;0;0;0;0;7;0;24105;0;0;0;0;8;0;23861;0;0;0;0;9;0;13012;0;0;0;0
24.10.19;19:55:00;1;996;7478;0;2;0;17449;0;0;0;0;3;0;11057;0;0;0;0;4;0;14842;0;0;0;0;5;0;35304;2;0;0;0;0;0;6;0;27047;2;0;0;0;0;0;7;0;24105;0;0;0;0;8;0;23861;0;0;0;0;9;0;13012;0;0;0;0
24.10.19;19:50:00;1;1848;7368;0;2;0;17449;0;0;0;0;3;0;11057;0;0;0;0;4;0;14842;0;0;0;0;5;0;35304;2;0;0;0;0;0;6;0;27047;2;0;0;0;0;0;7;0;24105;0;0;0;0;8;0;23861;0;0;0;0;9;0;13012;0;0;0;0
24.10.19;19:45:00;1;1657;7245;0;2;0;17449;0;0;0;0;3;0;11057;0;0;0;0;4;0;14842;0;0;0;0;5;0;35304;2;0;0;0;0;0;6;0;27047;2;0;0;0;0;0;7;0;24105;0;0;0;0;8;0;23861;0;0;0;0;9;0;13012;0;0;0;0
24.10.19;19:40:00;1;1588;7093;0;2;0;17449;0;0;0;0;3;0;11057;0;0;0;0;4;0;14842;0;0;0;0;5;0;35304;2;0;0;0;0;0;6;0;27047;2;0;0;0;0;0;7;0;24105;0;0;0;0;8;0;23861;0;0;0;0;9;0;13012;0;0;0;0
24.10.19;19:35:00;1;1273;6943;0;2;0;17449;0;0;0;0;3;0;11057;0;0;0;0;4;0;14842;0;0;0;0;5;0;35304;2;0;0;0;0;0;6;0;27047;2;0;0;0;0;0;7;0;24105;0;0;0;0;8;0;23861;0;0;0;0;9;0;13012;0;0;0;0
24.10.19;19:30:00;1;1861;6820;0;2;0;17449;0;0;0;0;3;0;11057;0;0;0;0;4;0;14842;0;0;0;0;5;0;35304;2;0;0;0;0;0;6;0;27047;2;0;0;0;0;0;7;0;24105;0;0;0;0;8;0;23861;0;0;0;0;9;0;13012;0;0;0;0
24.10.19;19:25:00;1;1880;6674;0;2;0;17449;0;0;0;0;3;0;11057;0;0;0;0;4;0;14842;0;0;0;0;5;0;35304;2;0;0;0;0;0;6;0;27047;2;0;0;0;0;0;7;0;24105;0;0;0;0;8;0;23861;0;0;0;0;9;0;13012;0;0;0;0
24.10.19;19:20:00;1;1573;6527;0;2;0;17449;0;0;0;0;3;0;11057;0;0;0;0;4;0;14842;0;0;0;0;5;0;35304;2;0;0;0;0;0;6;0;27047;2;0;0;0;0;0;7;0;24105;0;0;0;0;8;0;23861;0;0;0;0;9;0;13012;0;0;0;0
24.10.19;19:15:00;1;3681;6378;0;2;0;17449;0;0;0;0;3;0;11057;0;0;0;0;4;0;14842;0;0;0;0;5;0;35304;2;0;0;0;0;0;6;0;27047;2;0;0;0;0;0;7;0;24105;0;0;0;0;8;0;23861;0;0;0;0;9;0;13012;0;0;0;0
24.10.19;19:10:00;1;4182;6048;0;2;0;17449;0;0;0;0;3;0;11057;0;0;0;0;4;0;14842;0;0;0;0;5;0;35304;2;0;0;0;0;0;6;0;27047;2;0;0;0;0;0;7;0;24105;0;0;0;0;8;0;23861;0;0;0;0;9;0;13012;0;0;0;0
24.10.19;19:05:00;1;1974;5720;0;2;0;17449;0;0;0;0;3;0;11057;0;0;0;0;4;0;14842;0;0;0;0;5;0;35304;2;0;0;0;0;0;6;0;27047;2;0;0;0;0;0;7;0;24105;0;0;0;0;8;0;23861;0;0;0;0;9;0;13012;0;0;0;0
24.10.19;19:00:00;1;1866;5531;0;2;0;17449;0;0;0;0;3;0;11057;0;0;0;0;4;0;14842;0;0;0;0;5;0;35304;2;0;0;0;0;0;6;0;27047;2;0;0;0;0;0;7;0;24105;0;0;0;0;8;0;23861;0;0;0;0;9;0;13012;0;0;0;0
24.10.19;18:55:00;1;204;5421;0;2;0;17449;0;0;0;0;3;0;11057;0;0;0;0;4;0;14842;0;0;0;0;5;0;35304;2;0;0;0;0;0;6;0;27047;2;0;0;0;0;0;7;0;24105;0;0;0;0;8;0;23861;0;0;0;0;9;0;13012;0;0;0;0
24.10.19;18:50:00;1;289;5404;0;2;0;17449;0;0;0;0;3;0;11057;0;0;0;0;4;0;14842;0;0;0;0;5;0;35304;2;0;0;0;0;0;6;0;27047;2;0;0;0;0;0;7;0;24105;0;0;0;0;8;0;23861;0;0;0;0;9;0;13012;0;0;0;0
24.10.19;18:45:00;1;249;5379;0;2;0;17449;0;0;0;0;3;0;11057;0;0;0;0;4;0;14842;0;0;0;0;5;0;35304;2;0;0;0;0;0;6;0;27047;2;0;0;0;0;0;7;0;24105;0;0;0;0;8;0;23861;0;0;0;0;9;0;13012;0;0;0;0
24.10.19;18:40:00;1;247;5359;0;2;0;17449;0;0;0;0;3;0;11057;0;0;0;0;4;0;14842;0;0;0;0;5;0;35304;2;0;0;0;0;0;6;0;27047;2;0;0;0;0;0;7;0;24105;0;0;0;0;8;0;23861;0;0;0;0;9;0;13012;0;0;0;0
24.10.19;18:35:00;1;259;5338;0;2;0;17449;0;0;0;0;3;0;11057;0;0;0;0;4;0;14842;0;0;0;0;5;0;35304;2;0;0;0;0;0;6;0;27047;2;0;0;0;0;0;7;0;24105;0;0;0;0;8;0;23861;0;0;0;0;9;0;13012;0;0;0;0
24.10.19;18:30:00;1;204;5317;0;2;0;17449;0;0;0;0;3;0;11057;0;0;0;0;4;0;14842;0;0;0;0;5;0;35304;2;0;0;0;0;0;6;0;27047;2;0;0;0;0;0;7;0;24105;0;0;0;0;8;0;23861;0;0;0;0;9;0;13012;0;0;0;0
24.10.19;18:25:00;1;229;5300;0;2;0;17449;0;0;0;0;3;0;11057;0;0;0;0;4;0;14842;0;0;0;0;5;0;35304;2;0;0;0;0;0;6;0;27047;2;0;0;0;0;0;7;0;24105;0;0;0;0;8;0;23861;0;0;0;0;9;0;13012;0;0;0;0
24.10.19;18:20:00;1;241;5281;0;2;0;17449;0;0;42;4;3;0;11057;0;0;183;18;4;0;14842;0;0;0;0;5;0;35304;2;0;0;0;0;0;6;0;27047;2;0;0;0;0;0;7;0;24105;0;0;0;0;8;0;23861;0;0;0;0;9;0;13012;0;0;0;0
24.10.19;18:15:00;1;203;5261;0;2;0;17449;6;0;297;26;3;0;11057;6;0;344;27;4;0;14842;2;0;80;24;5;0;35304;2;0;0;72;72;9;6;0;27047;1;0;0;0;0;0;7;0;24105;0;0;0;0;8;0;23861;0;0;0;0;9;0;13012;0;0;0;0
24.10.19;18:10:00;1;202;5244;0;2;0;17449;6;0;337;27;3;0;11057;6;2;400;28;4;0;14842;1;0;126;25;5;0;35304;2;0;0;287;301;27;6;0;27047;23;5;3;398;193;32;7;0;24105;0;0;160;16;8;0;23861;0;0;211;20;9;0;13012;0;0;175;13
24.10.19;18:05:00;1;202;5228;0;2;0;17449;6;0;363;27;3;0;11057;6;2;429;28;4;0;14842;1;0;165;25;5;0;35304;23;0;0;389;499;34;6;0;27047;23;8;3;246;450;33;7;0;24105;6;0;323;27;8;0;23861;6;0;328;26;9;0;13012;6;0;344;22
24.10.19;18:00:00;1;203;5211;0;2;0;17449;6;0;383;27;3;2;11057;6;3;459;28;4;0;14842;1;0;203;26;5;8;35304;1;0;0;396;622;35;6;0;27047;23;8;0;182;550;33;7;0;24105;6;0;390;27;8;0;23861;6;0;395;27;9;0;13012;6;0;424;22
24.10.19;17:55:00;1;297;5193;0;2;0;17449;6;0;402;28;3;2;11057;6;6;488;29;4;4;14842;3;4;204;27;5;56;35303;1;0;7;375;597;36;6;10;27047;23;7;7;456;513;34;7;0;24105;6;0;450;28;8;0;23861;6;2;435;27;9;2;13012;3;5;446;23
24.10.19;17:50:00;1;244;5168;0;2;0;17449;6;0;411;29;3;1;11057;6;7;500;29;4;1;14842;3;1;199;27;5;91;35298;4;6;22;365;580;36;6;59;27045;4;30;44;439;406;35;7;0;24105;4;5;452;28;8;0;23861;6;5;452;28;9;0;13011;6;5;496;23
24.10.19;17:45:00;1;247;5148;0;2;25;17449;6;47;379;30;3;5;11056;4;15;482;29;4;1;14842;3;1;199;27;5;108;35291;4;20;30;365;580;36;6;71;27040;4;33;41;439;406;35;7;6;24105;3;16;446;28;8;6;23861;4;15;446;28;9;0;13011;6;5;512;23
24.10.19;17:40:00;1;236;5127;0;2;47;17447;4;81;355;30;3;8;11056;3;20;484;30;4;10;14841;3;10;199;28;5;125;35281;4;26;38;365;580;36;6;81;27034;4;37;42;439;406;35;7;15;24105;6;23;436;29;8;7;23861;6;11;468;29;9;1;13011;6;6;518;24
24.10.19;17:35:00;1;203;5108;0;2;55;17443;4;92;359;31;3;4;11055;6;10;521;30;4;10;14841;3;10;198;28;5;139;35271;4;31;44;365;580;37;6;86;27027;4;42;46;439;406;35;7;0;24100;0;0;0;0;8;36;23860;4;73;356;29;9;0;13011;6;0;457;20
24.10.19;17:30:00;1;202;5091;0;2;67;17438;4;100;368;31;3;12;11055;6;26;488;31;4;17;14840;3;18;198;28;5;150;35259;4;36;49;365;580;37;6;95;27020;4;49;56;439;406;35;7;42;24100;4;83;411;30;8;45;23857;4;77;360;29;9;2;13011;6;9;525;25
24.10.19;17:25:00;1;310;5072;0;2;98;17433;4;133;362;32;3;37;11054;6;62;476;31;4;51;14838;3;53;197;29;5;177;35247;4;57;59;365;580;37;6;112;27012;4;53;61;439;406;35;7;79;24096;4;105;404;30;8;68;23853;4;107;410;30;9;10;13011;4;19;511;25
24.10.19;17:20:00;1;331;5047;0;2;175;17425;4;214;379;33;3;96;11051;4;134;451;32;4;103;14834;3;107;206;29;5;242;35231;4;94;92;365;580;37;6;153;27002;4;84;90;439;406;36;7;138;24090;4;177;441;31;8;94;23847;4;127;360;24;9;14;13010;6;19;553;26
24.10.19;17:15:00;1;343;5019;0;2;349;17410;4;393;370;33;3;183;11043;4;227;487;32;4;242;14825;5;252;235;29;5;393;35209;4;174;162;365;580;37;6;250;26988;4;113;113;439;406;36;7;473;24078;4;519;461;31;8;299;23838;4;350;472;31;9;76;13009;4;108;465;27
24.10.19;17:10:00;1;345;4990;0;2;128;17380;4;167;365;34;3;70;11027;4;112;483;33;4;59;14805;3;61;198;30;5;222;35177;4;78;81;365;580;38;6;141;26968;4;76;86;439;406;36;7;127;24038;4;163;412;32;8;113;23813;4;151;421;31;9;15;13002;6;26;505;27
24.10.19;17:05:00;1;382;4961;0;2;122;17369;4;160;366;34;3;65;11021;4;108;481;33;4;59;14800;3;61;198;30;5;225;35159;4;81;83;365;580;38;6;146;26956;4;68;78;438;406;36;7;107;24027;4;148;394;32;8;103;23803;4;140;398;32;9;8;13001;6;11;541;27
24.10.19;17:00:00;1;401;4929;0;2;144;17359;4;181;361;35;3;79;11016;4;120;483;33;4;81;14795;3;85;199;31;5;260;35140;4;99;98;365;580;38;6;163;26944;4;78;79;439;406;36;7;135;24018;4;172;404;33;8;128;23794;4;165;401;32;9;38;13000;6;55;507;28
24.10.19;16:55:00;1;355;4895;0;2;174;17347;4;211;357;36;3;97;11009;4;138;489;34;4;105;14788;5;109;213;31;5;300;35118;4;120;117;365;580;38;6;192;26930;4;99;97;439;406;36;7;177;24007;4;212;406;33;8;173;23784;4;211;418;33;9;73;12997;4;102;439;29
24.10.19;16:50:00;1;351;4866;0;2;219;17333;4;265;371;38;3;129;11001;4;169;491;34;4;140;14779;5;146;218;32;5;365;35093;4;152;151;365;580;39;6;230;26913;4;113;117;438;411;37;7;178;23992;4;214;343;27;8;217;23769;4;260;418;34;9;88;12991;4;119;436;30
24.10.19;16:45:00;1;240;4836;0;2;430;17314;4;481;373;39;3;235;10990;4;276;448;35;4;277;14767;5;288;230;32;5;619;35061;4;287;253;386;627;39;6;455;26893;4;219;240;548;536;37;7;454;23974;4;504;445;34;8;437;23751;4;489;449;34;9;166;12983;4;197;371;31
24.10.19;16:40:00;1;248;4816;0;2;1088;17280;4;1169;380;41;3;604;10971;4;658;421;36;4;599;14745;5;624;214;33;5;1380;35008;4;689;585;401;656;39;6;1027;26853;4;505;514;572;557;37;7;1198;23937;4;1280;460;35;8;1132;23716;4;1201;469;35;9;453;12970;4;495;404;33
24.10.19;16:35:00;1;223;4795;0;2;1776;17188;4;1882;385;42;3;996;10920;4;1062;419;36;4;881;14695;5;918;200;34;5;2205;34883;4;1156;957;417;674;40;6;1706;26759;4;864;851;590;566;37;7;2302;23835;4;2420;471;35;8;1876;23618;4;1975;390;29;9;987;12931;4;1053;429;34
24.10.19;16:30:00;1;294;4776;0;2;1912;17041;4;2022;384;42;3;1068;10837;4;1140;420;36;4;909;14621;5;947;206;34;5;2409;34698;4;1262;1051;410;677;40;6;1876;26616;4;956;947;589;566;37;7;2460;23642;4;2595;468;36;8;2402;23430;4;2527;466;35;9;1150;12849;4;1226;488;35
24.10.19;16:25:00;1;248;4753;0;2;2008;16882;4;2126;389;43;3;1115;10748;4;1181;412;36;4;960;14545;5;999;224;34;5;2579;34497;4;1361;1128;418;663;40;6;2008;26460;4;1004;994;587;567;38;7;2604;23437;4;2739;466;36;8;2551;23230;4;2679;461;36;9;1302;12753;4;1390;503;36
24.10.19;16:20:00;1;217;4733;0;2;2114;16715;4;2235;392;43;3;1158;10656;4;1232;421;36;4;989;14466;5;1030;211;35;5;2762;34281;4;1457;1206;416;672;40;6;2151;26293;4;1127;1109;586;568;38;7;2692;23221;4;2828;463;36;8;2623;23021;4;2763;464;36;9;1108;12647;4;1181;418;29
24.10.19;16:15:00;1;232;4715;0;2;2236;16539;4;2366;390;44;3;1225;10559;4;1300;417;37;4;1008;14383;5;1050;236;35;5;2979;34049;4;1574;1304;418;675;41;6;2308;26114;4;1205;1187;590;569;38;7;2858;22997;4;3004;466;37;8;2804;22799;4;2944;464;36;9;1243;12530;4;1324;435;30
24.10.19;16:10:00;1;253;4695;0;2;2398;16352;4;2538;387;44;3;1304;10457;4;1384;417;37;4;1100;14299;5;1146;242;36;5;3231;33800;4;1722;1425;413;677;41;6;2516;25919;4;1264;1250;590;567;38;7;3058;22758;4;3217;463;37;8;2991;22568;4;3149;464;37;9;1596;12408;4;1700;523;37
24.10.19;16:05:00;1;316;4674;0;2;2544;16152;4;2694;392;45;3;1375;10349;4;1458;416;37;4;1213;14207;5;1264;238;36;5;3496;33527;4;1867;1543;411;676;41;6;2717;25708;4;1388;1362;590;568;38;7;2574;22503;4;2705;370;29;8;3155;22316;4;3323;461;37;9;1694;12273;4;1800;521;37
24.10.19;16:00:00;1;347;4647;0;2;2583;15942;4;2730;392;45;3;1397;10234;4;1478;413;38;4;1288;14107;5;1341;233;37;5;3638;33236;4;1945;1602;413;677;41;6;2817;25483;4;1434;1400;591;567;38;7;3275;22239;4;3444;459;38;8;3234;22057;4;3395;453;37;9;1736;12134;4;1844;518;38
24.10.19;15:55:00;1;2041;4588;0;2;2705;15725;4;2862;396;46;3;1455;10118;4;1540;415;38;4;1399;13999;5;1457;236;37;5;3861;32931;4;2061;1708;409;673;42;6;3003;25245;4;1556;1527;588;570;38;7;2889;21909;0;3037;381;31;8;2831;21789;4;2969;379;31;9;1835;11989;4;1950;513;38
24.10.19;15:50:00;1;292;4427;0;2;2814;15500;4;2976;401;46;3;1506;9997;4;1592;418;38;4;1496;13883;5;1558;229;38;5;4071;32608;4;2176;1799;414;673;42;6;3164;24996;4;1630;1591;591;570;38;7;3574;21678;4;3751;456;38;8;3491;21503;4;3669;458;38;9;1886;11835;4;2001;514;38
24.10.19;15:45:00;1;279;4402;0;2;2837;15266;4;3001;400;46;3;1482;9871;4;1568;416;39;4;1706;13759;5;1777;233;38;5;4257;32269;4;2279;1879;411;662;42;6;3272;24732;4;1712;1672;591;573;39;7;3608;21379;4;3791;459;38;8;3553;21212;4;3733;454;38;9;1607;11678;4;1704;424;32
24.10.19;15:40:00;1;268;4379;0;2;3047;15031;4;3215;390;47;3;1650;9748;4;1739;407;39;4;2043;13617;5;2128;240;39;5;4681;31919;4;2527;2078;409;667;42;6;3686;24461;4;1902;1838;592;561;39;7;3581;21079;4;3771;459;38;8;3334;20916;4;3501;442;38;9;1906;11517;4;2018;515;39
24.10.19;15:35:00;1;329;4357;0;2;3081;14778;4;3254;396;47;3;1665;9611;4;1758;424;39;4;2006;13449;5;2089;237;39;5;4738;31533;4;2536;2107;410;667;42;6;3663;24161;4;1898;1852;593;564;39;7;3853;20778;4;4048;457;39;8;3147;20638;4;3295;379;31;9;2056;11360;4;2177;507;39
24.10.19;15:30:00;1;268;4330;0;2;3098;14522;4;3276;397;47;3;1719;9473;4;1815;432;40;4;2049;13282;5;2135;238;39;5;4842;31136;4;2599;2153;417;675;42;6;3788;23853;4;1990;1922;589;570;39;7;3980;20457;4;4180;454;39;8;3126;20324;4;3284;364;31;9;2129;11189;4;2253;503;40
24.10.19;15:25:00;1;267;4308;0;2;3016;14266;4;3181;388;47;3;1775;9331;4;1879;463;40;4;2049;13113;5;2134;235;40;5;4751;30736;4;2546;2107;412;665;43;6;3679;23542;4;1890;1837;590;569;39;7;3912;20127;4;4106;454;39;8;3815;19998;4;4004;450;39;9;2071;11013;4;2195;508;40
24.10.19;15:20:00;1;348;4285;0;2;3188;14014;4;3367;393;47;3;1966;9183;4;2081;486;41;4;2238;12942;5;2331;233;40;5;5117;30338;4;2756;2278;408;664;43;6;3974;23233;4;2030;1979;585;563;39;7;4173;19800;4;4390;454;39;8;4113;19682;4;4320;445;39;9;2249;10840;4;2378;495;40
24.10.19;15:15:00;1;371;4256;0;2;3317;13748;4;3499;390;48;3;2118;9019;4;2236;496;41;4;2386;12755;5;2485;234;41;5;5388;29910;4;2875;2393;409;666;43;6;4186;22901;4;2166;2096;589;565;39;7;3584;19452;4;3759;375;32;8;4238;19337;4;4445;453;39;9;1536;10651;4;1624;330;26
24.10.19;15:10:00;1;373;4225;0;2;3324;13473;4;3509;394;47;3;2148;8842;4;2273;499;41;4;2474;12557;5;2577;235;41;5;5515;29462;4;2979;2461;409;669;43;6;4292;22550;4;2199;2149;591;567;39;7;4326;19094;4;4541;446;39;8;4242;18984;4;4455;447;39;9;1409;10409;0;1493;304;24
24.10.19;15:05:00;1;434;4192;0;2;3317;13195;4;3500;394;47;3;2143;8663;4;2265;489;41;4;2550;12350;5;2656;234;41;5;5560;29003;4;3003;2482;409;666;43;6;4354;22193;4;2270;2199;588;568;39;7;4290;18732;4;4506;458;39;8;4253;18632;4;4467;447;39;9;2343;10266;4;2476;493;41
24.10.19;15:00:00;1;481;4158;0;2;3134;12918;4;3305;394;47;3;2024;8485;4;2140;497;41;4;2446;12138;5;2547;230;41;5;5249;28541;4;2809;2354;402;663;43;6;4181;21833;4;2153;2132;599;569;39;7;4393;18374;4;4614;444;39;8;4272;18277;4;4489;456;39;9;2304;10072;4;2441;508;41
24.10.19;14:55:00;1;378;4125;0;2;3382;12665;4;3564;381;47;3;2182;8322;4;2306;491;41;4;2710;11942;5;2823;229;41;5;5790;28099;4;3135;2583;404;650;43;6;4498;21489;4;2330;2277;578;563;39;7;4188;18014;4;4393;446;39;8;4222;17930;4;4436;447;39;9;2387;9884;4;2523;499;41
24.10.19;14:50:00;1;387;4093;0;2;3443;12383;4;3628;381;47;3;2235;8140;4;2362;492;41;4;2778;11716;5;2894;224;42;5;5961;27623;4;3231;2667;400;636;43;6;4667;21116;4;2385;2336;571;552;39;7;4551;17671;4;4773;446;39;8;4507;17577;4;4731;452;39;9;2483;9681;4;2621;494;41
24.10.19;14:45:00;1;312;4061;0;2;3284;12096;4;3465;383;47;3;2134;7954;4;2256;488;41;4;2723;11485;5;2837;226;42;5;5775;27125;4;3098;2557;399;633;43;6;4502;20727;4;2322;2259;569;551;39;7;4361;17290;4;4588;448;39;8;3559;17198;4;3736;367;32;9;2397;9472;4;2531;492;41
24.10.19;14:40:00;1;335;4034;0;2;3624;11823;4;3818;374;47;3;2351;7775;4;2483;481;41;4;3051;11257;5;3178;226;42;5;6456;26643;4;3509;2896;396;636;43;6;5050;20350;4;2608;2521;566;553;39;7;4775;16923;4;5015;442;39;8;3788;16838;4;3975;352;31;9;2610;9272;4;2756;486;41